Track STARLINK-1990 now! 10-day predictions STARLINK-1990 is classified as:
1 47586U 21009AQ 21058.58334491 -.00891906 00000-0 -10768-1 0 9993 2 47586 53.0512 9.5224 0001114 67.3598 309.9195 15.62543525 4294